Вернуться в каталог

FENGYUN 1C DEB

АктивенSSO
NORAD 31519·DEBRIS·🇨🇳 China

Запущен May 10, 1999 с Taiyuan Satellite Launch Center

Loading…

Ближайшие Пролёты (ближайшие 24 часа)

TLE

СвежийSource: Space-Track

Эпоха: Sep 13, 2026, 05:03 UTC

1 31519U 99025BXJ 26256.21078703  .00000484  00000-0  22672-3 0  9991
2 31519  98.5878 251.0906 0052549 163.0441 197.2509 14.23877674686702

Отслеживайте FENGYUN 1C DEB в реальном времени с AllMySat

Download on the App Store